Broomfield, CO

1:27 AM MST on November 22, 2017 (GMT -0700)
Jeffco

Weather History for KBJC - November, 2012

Change the Weather History Date:

Sunday, November 4, 2012

  Actual Average Record
Temperature  
Mean Temperature 50 °F -  
Max Temperature 62 °F 52 °F 77 °F (1999)
Min Temperature 39 °F 32 °F 14 °F (1991)
Degree Days  
Heating Degree Days 14    
Moisture  
Dew Point 25 °F    
Average Humidity 45    
Maximum Humidity 65    
Minimum Humidity 17    
Precipitation  
Precipitation 0.00 in - - ()
Sea Level Pressure  
Sea Level Pressure 30.21 in    
Wind  
Wind Speed 3 mph (NNW)    
Max Wind Speed 13 mph    
Max Gust Speed -    
Visibility 10 miles    
Events      
Averages and records for this station are not official NWS values.
T = Trace of Precipitation, MM = Missing Value Source: NWS Daily Summary

Daily Weather History Graph

Daily Weather History Graph

Search for Another Location

Airport or City:

Trip Planner

Search our weather history database for the weather conditions in past years. The results will help you decide how hot, cold, wet, or windy it might be!

Date:

Astronomy

Nov. 04, 2012 Rise Set
Actual Time 6:33 AM MST 4:54 PM MST
Civil Twilight 6:05 AM MST 5:22 PM MST
Nautical Twilight 5:32 AM MST 5:54 PM MST
Astronomical Twilight 5:01 AM MST 6:26 PM MST
Moon 9:34 PM MST (11/4) 11:18 AM MST (11/4)
Length of Visible Light 11h 17m
Length of Day
10h 20m
Waning Gibbous, 71% of the Moon is Illuminated
Nov 4
Waning Gibbous
Nov 6
Last Quarter
Nov 13
New
Nov 20
First Quarter
Nov 28
Full

Hourly Weather History & Observations

Time (MST) Temp. Windchill Dew Point Humidity Pressure Visibility Wind Dir Wind Speed Gust Speed Precip Events Conditions
12:16 AM 42.8 °F 41.1 °F 26.6 °F 53% 30.18 in 10.0 mi West 3.5 mph - N/A   Clear
12:36 AM 42.8 °F - 26.6 °F 53% 30.18 in 10.0 mi Calm Calm - N/A   Clear
1:16 AM 42.8 °F - 26.6 °F 53% 30.18 in 10.0 mi Calm Calm - N/A   Clear
1:36 AM 42.8 °F 41.1 °F 28.4 °F 57% 30.17 in 10.0 mi SW 3.5 mph - N/A   Clear
1:56 AM 41.0 °F 39.0 °F 28.4 °F 61% 30.16 in 10.0 mi SSW 3.5 mph - N/A   Clear
1:16 AM 42.8 °F - 28.4 °F 57% 30.17 in 10.0 mi Calm Calm - N/A   Clear
1:36 AM 42.8 °F - 30.2 °F 61% 30.17 in 10.0 mi Calm Calm - N/A   Clear
1:56 AM 41.0 °F - 30.2 °F 65% 30.17 in 10.0 mi Calm Calm - N/A   Clear
2:16 AM 41.0 °F 38.0 °F 28.4 °F 61% 30.17 in 10.0 mi NW 4.6 mph - N/A   Clear
2:36 AM 42.8 °F 41.1 °F 23.0 °F 46% 30.17 in 10.0 mi West 3.5 mph - N/A   Clear
2:56 AM 42.8 °F - 21.2 °F 42% 30.17 in 10.0 mi Calm Calm - N/A   Clear
3:16 AM 44.6 °F 43.1 °F 19.4 °F 37% 30.16 in 10.0 mi North 3.5 mph - N/A   Clear
3:36 AM 41.0 °F 35.2 °F 26.6 °F 57% 30.16 in 10.0 mi North 9.2 mph - N/A   Clear
3:56 AM 41.0 °F - 26.6 °F 57% 30.17 in 10.0 mi Calm Calm - N/A   Clear
4:16 AM 41.0 °F 36.4 °F 26.6 °F 57% 30.17 in 10.0 mi North 6.9 mph - N/A   Clear
4:36 AM 39.2 °F - 26.6 °F 61% 30.18 in 10.0 mi Calm Calm - N/A   Clear
4:56 AM 42.8 °F - 26.6 °F 53% 30.18 in 10.0 mi Calm Calm - N/A   Clear
5:48 AM 41.0 °F - 24.8 °F 53% 30.16 in 40.0 mi Calm Calm - N/A   Mostly Cloudy
6:47 AM 44.6 °F 43.1 °F 26.6 °F 49% 30.19 in 40.0 mi Variable 3.5 mph - N/A   Mostly Cloudy
7:50 AM 42.8 °F - 26.6 °F 53% 30.19 in 40.0 mi Calm Calm - N/A   Mostly Cloudy
8:50 AM 55.4 °F - 28.4 °F 36% 30.19 in 60.0 mi SW 4.6 mph - N/A   Mostly Cloudy
9:45 AM 60.8 °F - 15.8 °F 17% 30.20 in 60.0 mi WNW 12.7 mph - N/A   Overcast
10:47 AM 62.6 °F - 17.6 °F 18% 30.20 in 60.0 mi NNW 11.5 mph - N/A   Overcast
11:48 AM 59.0 °F - 26.6 °F 29% 30.20 in 60.0 mi North 6.9 mph - N/A   Overcast
1:50 PM 62.6 °F - 19.4 °F 19% 30.19 in 60.0 mi North 6.9 mph - N/A   Mostly Cloudy
2:01 PM 62.6 °F - 19.4 °F 19% 30.19 in 60.0 mi East 6.9 mph - N/A   Mostly Cloudy
2:47 PM 62.6 °F - 19.4 °F 19% 30.20 in 70.0 mi ENE 5.8 mph - N/A   Mostly Cloudy
4:48 PM 55.4 °F - 23.0 °F 29% 30.22 in 50.0 mi ENE 8.1 mph - N/A   Mostly Cloudy
5:48 PM 55.4 °F - 19.4 °F 25% 30.25 in 30.0 mi Calm Calm - N/A   Mostly Cloudy
6:48 PM 60.8 °F - 21.2 °F 22% 30.28 in 30.0 mi Calm Calm - N/A   Mostly Cloudy
7:49 PM 48.2 °F - 24.8 °F 40% 30.31 in 30.0 mi East 4.6 mph - N/A   Mostly Cloudy
8:46 PM 46.4 °F 44.3 °F 26.6 °F 46% 30.36 in 30.0 mi North 4.6 mph - N/A   Partly Cloudy
9:48 PM 44.6 °F - 26.6 °F 49% 30.36 in 30.0 mi Calm Calm - N/A   Scattered Clouds
10:15 PM 42.8 °F - 28.4 °F 57% 30.36 in 10.0 mi Calm Calm - N/A   Clear
10:36 PM 42.8 °F - 28.4 °F 57% 30.36 in 10.0 mi Calm Calm - N/A   Clear
10:56 PM 41.0 °F - 28.4 °F 61% 30.35 in 10.0 mi Calm Calm - N/A   Clear